Pagina principală
METAR-TAF:

METAR-TAF

Aeroporturi :

Grangeville, Idaho, Statele Unite ale Americii

Latitudine: 45-56-33N, longitudine: 116-07-24W, elevație: 1010 m

Observații meteo curente

Raportul a fost făcut în urmă cu 16 de minute, la 13:55 UTC
Vânt 5 kt de la Est
Temperatură 17°C
Umiditate 52%
Presiune 1021 hPa
Vizibilitate: 16.1 km
Cer senin

METAR: KGIC 231355Z AUTO 09005KT 10SM CLR 17/07 A3014 RMK AO1

Ora: 07:11 (14:11 UTC)


TAF: lipsă

Observații și prognoze meteo pentru peste 4.000 de aeroporturi (rapoarte METAR și TAF).

Stațiile disponibile sunt reprezentate pe hartă prin puncte galbene și roșii.

Țineți indicatorul mouse-ului pe punctul dorit pentru a vedea denumirea stației.

Apoi, faceți clic pentru a vedea observațiile și prognozele meteorologice.

Pentru a schimba harta: Pentru mărire, faceți clic pe butoanele verzi cu cruce neagră; pentru micșorare, pe butonul verde cu o liniuță; pentru hărți învecinate, pe săgețile verzi.


METAR-TAF: